Regional Weather Roundup
Issued by NWS

Home | Current Version | Previous Version | Text Only | Print | Product List | Glossary On
Versions: 1 2 3 4 5 6 7 8 9 10 11 12 13 14 15 16 17 18 19 20 21 22 23 24 25 26 27 28 29 30 31 32 33 34 35 36 37 38 39 40 41 42 43 44 45 46 47 48 49 50
000
ASUS45 KSLC 241910
RWRUT

UTAH REGIONAL WEATHER ROUNDUP
NATIONAL WEATHER SERVICE SALT LAKE CITY UT
100 PM MDT THU MAY 24 2018

UTZ001>011-023>025-242000-

NORTHERN UTAH

CITY           SKY/WX    TMP DP  RH WIND       PRES   REMARKS
BRIGHAM CITY   SUNNY     77  35  21 S7        30.11F
HILL AFB       MOSUNNY   76  39  25 S5        30.13S
LOGAN          SUNNY     74  44  34 VRB3      30.11F
OGDEN          SUNNY     79  39  23 S7        30.10F
SALT LAKE CITY MOSUNNY   79  37  22 S6G17     30.08F
TOOELE VALLEY  MOSUNNY   77  45  31 N13       30.09F
WENDOVER       SUNNY     75  41  29 E8        30.10F
HEBER CITY       N/A     77  32  19 SW6       30.15F
WEST JORDAN    SUNNY     78  44  29 SE13G18   30.12F

$$

UTZ011>015-024>027-242000-

CENTRAL/NORTHEAST UTAH

CITY           SKY/WX    TMP DP  RH WIND       PRES   REMARKS
PROVO AIRPORT  MOSUNNY   77  42  28 W5        30.13F
MOAB/CANYONLAN SUNNY     82  27  13 W9        30.09F
DELTA          SUNNY     79  28  15 SW10      30.12F
PRICE          MOSUNNY   76  29  17 SE12G17   30.18F
ROOSEVELT      MOSUNNY   79  34  19 S5        30.16F
VERNAL         MOSUNNY   76  37  24 VRB3      30.15F

$$

UTZ013>016-019>022-027-242000-

SOUTHERN UTAH

CITY           SKY/WX    TMP DP  RH WIND       PRES   REMARKS
BRYCE CANYON   SUNNY     69  20  15 SE6G21    30.30S
CEDAR CITY     SUNNY     79  22  12 SW13G23   30.14F
MILFORD        SUNNY     79  27  14 SW12G25   30.12F
ST GEORGE      CLEAR     85  28  12 NW10      30.02F
HANKSVILLE     SUNNY     82  28  14 SE5       30.12F
BLANDING         N/A     76  22  13 SW7       30.27F

$$

REGIONAL REPORTS     COLORADO/ARIZONA

CITY           SKY/WX    TMP DP  RH WIND       PRES   REMARKS
CRAIG, CO      MOSUNNY   73  39  29 SW13G24   30.21F
GRAND JUNCTION SUNNY     81  32  17 SW6       30.12F
RIFLE, CO      MOSUNNY   80  21  11 W10       30.16F
MONTROSE, CO   SUNNY     79  20  11 N8        30.18F
CORTEZ, CO     SUNNY     80  24  12 SW9       30.20F
COLORADO CITY    N/A     82  23  11 E8        30.16F
PAGE, AZ       SUNNY     82  26  13 MISG      30.10F
GRAND CANYON   SUNNY     73  20  13 VRB5      30.25F
KINGMAN, AZ    SUNNY     83  34  17 SW8G17    30.08S
FLAGSTAFF, AZ  SUNNY     70  18  13 S12       30.28F

$$

REGIONAL REPORTS    NEVADA/IDAHO/WYOMING

CITY           SKY/WX    TMP DP  RH WIND       PRES   REMARKS
LAS VEGAS, NV  SUNNY     88  36  15 E13G21    29.98F
ELY, NY        MOSUNNY   73  30  20 S16G23    30.17F
ELKO, NV       SUNNY     75  47  36 NW7       30.10F
POCATELLO, ID  MOSUNNY   73  49  42 W8        30.11F
BURLEY, ID     MOSUNNY   76  47  35 CALM      30.08F
FORT BRIDGER,  MOCLDY    71  37  29 W15       30.27F
EVANSTON, WY   MOSUNNY   68  38  33 SW15G24   30.25S
ROCK SPRINGS,  SUNNY     68  38  33 W13G24    30.22F

$$



USA.gov is the U.S. government's official web portal to all federal, state and local government web resources and services.